Tracking 35334 objects as of 12-Sep-2026
HD Live streaming from Space Station
objects crossing your sky now

HULIANWANG DIGUI-151

Track HULIANWANG DIGUI-151 now!
10-day predictions


NORAD ID: 67527
Int'l Code: 2026-013F
Launch date: January 19, 2026
Source: People's Republic of China (PRC)
Launch site: Wenchang Satellite Launch Center (WSC)
Your satellite tracking list
Your tracking list is empty




NASA's NSSDC Master Catalog

Two Line Element Set (TLE):
1 67527U 26013F   26255.10805254 -.00000106  00000-0  39433-4 0  9998
2 67527  50.0098  43.9004 0000854  78.8568 281.2400 13.29329891 31615
Source of the keplerian elements: AFSPC